Williamsport, PA

5:11 AM EDT on April 30, 2017 (GMT -0400)
Williamsport Rgnl

Weather History for KIPT - March, 2012

Change the Weather History Date:

Friday, March 16, 2012

  Actual Average Record
Temperature  
Mean Temperature 57 °F 38 °F  
Max Temperature 66 °F 48 °F 80 °F (1945)
Min Temperature 47 °F 28 °F 7 °F (1970)
Degree Days  
Heating Degree Days 8 27  
Month to date heating degree days 326 472  
Since 1 July heating degree days 4099 4939  
Cooling Degree Days 0 0  
Month to date cooling degree days 0 0  
Year to date cooling degree days 0 0  
Growing Degree Days 6 (Base 50)    
Moisture  
Dew Point 46 °F    
Average Humidity 76    
Maximum Humidity 93    
Minimum Humidity 58    
Precipitation  
Precipitation 0.01 in 0.10 in 1.20 in (2007)
Month to date precipitation 0.80 1.41  
Year to date precipitation 5.56 6.45  
Snow  
Snow 0.00 in 0.30 in 10.20 in (2004)
Month to date snowfall 0.1 4.5  
Since 1 July snowfall 12.3 32.5  
Snow Depth 0.00 in    
Sea Level Pressure  
Sea Level Pressure 30.14 in    
Wind  
Wind Speed 4 mph (East)    
Max Wind Speed 13 mph    
Max Gust Speed 18 mph    
Visibility 5 miles    
Events Rain    
T = Trace of Precipitation, MM = Missing Value Source: NWS Daily Summary

Daily Weather History Graph

Daily Weather History Graph

Search for Another Location

Airport or City:

Trip Planner

Search our weather history database for the weather conditions in past years. The results will help you decide how hot, cold, wet, or windy it might be!

Date:

Astronomy

Mar. 16, 2012 Rise Set
Actual Time 7:16 AM EDT 7:15 PM EDT
Civil Twilight 6:49 AM EDT 7:43 PM EDT
Nautical Twilight 6:17 AM EDT 8:15 PM EDT
Astronomical Twilight 5:44 AM EDT 8:48 PM EDT
Moon 3:36 AM EDT (3/16) 1:30 PM EDT (3/16)
Length of Visible Light 12h 54m
Length of Day
11h 59m
Waning Crescent, 33% of the Moon is Illuminated
Mar 16
Waning Crescent
Mar 22
New
Mar 30
First Quarter
Apr 6
Full
Apr 13
Last Quarter

Hourly Weather History & Observations

Time (EDT) Temp. Dew Point Humidity Pressure Visibility Wind Dir Wind Speed Gust Speed Precip Events Conditions
12:54 AM 54.0 °F 43.0 °F 66% 30.15 in 10.0 mi East 9.2 mph - N/A   Scattered Clouds
1:54 AM 52.0 °F 42.1 °F 69% 30.14 in 10.0 mi ESE 5.8 mph - N/A   Scattered Clouds
2:54 AM 50.0 °F 42.1 °F 74% 30.14 in 9.0 mi East 10.4 mph - N/A   Mostly Cloudy
3:15 AM 50.0 °F 42.8 °F 76% 30.16 in 9.0 mi East 5.8 mph - N/A   Overcast
3:54 AM 48.9 °F 42.1 °F 77% 30.16 in 8.0 mi SE 6.9 mph - N/A   Overcast
4:31 AM 48.2 °F 42.8 °F 82% 30.15 in 7.0 mi East 9.2 mph - N/A   Overcast
4:54 AM 48.9 °F 42.1 °F 77% 30.14 in 6.0 mi East 5.8 mph - 0.00 in Rain Light Rain
5:03 AM 48.2 °F 42.8 °F 82% 30.14 in 6.0 mi ENE 6.9 mph - 0.00 in   Haze
5:16 AM 48.2 °F 42.8 °F 82% 30.15 in 5.0 mi SE 4.6 mph - 0.00 in Rain Light Rain
5:54 AM 48.0 °F 43.0 °F 83% 30.15 in 5.0 mi East 5.8 mph - 0.00 in   Haze
6:54 AM 48.0 °F 44.1 °F 86% 30.15 in 4.0 mi East 5.8 mph - 0.00 in Rain Light Rain
7:54 AM 46.9 °F 44.1 °F 90% 30.18 in 3.0 mi ENE 5.8 mph - 0.01 in   Overcast
8:54 AM 46.9 °F 44.1 °F 90% 30.19 in 3.0 mi ENE 5.8 mph - N/A   Overcast
9:17 AM 48.2 °F 44.6 °F 87% 30.18 in 2.5 mi East 5.8 mph - N/A   Overcast
9:54 AM 48.0 °F 45.0 °F 89% 30.18 in 2.5 mi NE 3.5 mph - N/A   Overcast
10:54 AM 48.9 °F 45.0 °F 86% 30.19 in 2.0 mi NE 3.5 mph - N/A   Overcast
11:54 AM 50.0 °F 46.0 °F 86% 30.17 in 2.5 mi ESE 3.5 mph - N/A   Overcast
12:47 PM 51.8 °F 46.4 °F 82% 30.15 in 3.0 mi Calm Calm - N/A   Haze
12:54 PM 51.8 °F 46.4 °F 82% 30.14 in 3.0 mi Calm Calm - N/A   Haze
1:51 PM 57.2 °F 48.2 °F 72% 30.11 in 4.0 mi Calm Calm - N/A   Haze
1:54 PM 57.0 °F 48.0 °F 72% 30.12 in 4.0 mi Calm Calm - N/A   Haze
2:54 PM 59.0 °F 48.9 °F 69% 30.09 in 5.0 mi Calm Calm - N/A   Haze
3:54 PM 64.0 °F 50.0 °F 60% 30.08 in 5.0 mi ENE 5.8 mph - N/A   Haze
4:54 PM 64.9 °F 50.0 °F 58% 30.06 in 5.0 mi ENE 4.6 mph - N/A   Haze
5:54 PM 66.0 °F 51.1 °F 59% 30.06 in 5.0 mi East 5.8 mph - N/A   Haze
6:54 PM 63.0 °F 50.0 °F 63% 30.08 in 5.0 mi East 4.6 mph - N/A   Haze
7:54 PM 59.0 °F 50.0 °F 72% 30.11 in 6.0 mi Calm Calm - N/A   Haze
8:54 PM 57.0 °F 50.0 °F 77% 30.13 in 6.0 mi Calm Calm - N/A   Haze
9:54 PM 53.1 °F 48.0 °F 83% 30.15 in 6.0 mi Calm Calm - N/A   Haze
10:54 PM 52.0 °F 48.0 °F 86% 30.18 in 6.0 mi Calm Calm - N/A   Partly Cloudy
11:54 PM 50.0 °F 46.9 °F 89% 30.19 in 4.0 mi Calm Calm - N/A   Clear